Location: Austin
(30.3000°N, 97.7500°W)
Time: 16:11:13
(UTC-05:00)

Cosmos 1437 Rocket - Visible Passes

Search period start: 23 July 2024 00:00
Search period end: 02 August 2024 00:00
Orbit: 477 x 529 km, 81.2° (Epoch: 23 July)

Date Brightness Start Highest point End Pass type
(mag) Time Alt. Az. Time Alt. Az. Time Alt. Az.
23 Jul 3.7 21:26:52 18° SE 21:28:30 24° E 21:31:29 10° NE visible
23 Jul 5.6 23:02:36 10° W 23:04:05 12° WNW 23:05:32 10° NW visible
24 Jul 4.1 21:07:12 10° SE 21:09:41 18° E 21:12:09 10° NE visible
24 Jul 5.4 22:42:44 10° WSW 22:45:07 17° WNW 22:47:30 10° NW visible
25 Jul 4.9 22:23:15 10° SW 22:26:09 23° WNW 22:29:05 10° NNW visible
26 Jul 4.3 22:03:56 10° SW 22:07:11 32° W 22:10:28 10° NNW visible
27 Jul 3.6 21:44:45 10° SSW 21:48:13 45° W 21:51:44 10° N visible
28 Jul 2.9 21:25:40 10° SSW 21:29:15 68° W 21:32:53 10° N visible
29 Jul 2.5 21:06:42 10° S 21:10:17 82° E 21:13:57 10° N visible
30 Jul 2.6 20:47:48 10° S 20:51:19 55° E 20:54:54 10° NNE visible
01 Aug 6.0 21:47:43 10° W 21:48:59 11° WNW 21:50:15 10° NW visible
